Location: *
(58.4167°N, 22.5000°E)
Time: 09:29:11
(UTC+00:00)

Cosmos 2016 Rocket - Pass Details

Date: 22 September 2019
Orbit: 946 x 1001 km, 83.0° (Epoch: 15 October)

Event Time Altitude Azimuth Distance (km) Brightness Sun altitude
Rises 20:02:04 0° 347° (NNW) 3,632 8.0 -25.2°
Reaches altitude 10° 20:04:42 10° 354° (N) 2,684 7.0 -25.4°
Maximum altitude 20:10:32 44° 66° (ENE) 1,294 4.5 -25.9°
Enters shadow 20:11:07 43° 81° (E) 1,316 4.4 -25.9°
